Weather History for KHOP - January, 2014

Change the Weather History Date:

Sunday, January 5, 2014

  Actual Average Record
Temperature  
Mean Temperature 33 °F -  
Max Temperature 52 °F 44 °F - (-1)
Min Temperature 14 °F 29 °F - (-1)
Degree Days  
Heating Degree Days 32    
Moisture  
Dew Point 33 °F    
Average Humidity 92    
Maximum Humidity 100    
Minimum Humidity 60    
Precipitation  
Precipitation 0.28 in - - ()
Sea Level Pressure  
Sea Level Pressure 29.80 in    
Wind  
Wind Speed 15 mph (West)    
Max Wind Speed 31 mph    
Max Gust Speed 38 mph    
Visibility 8 miles    
Events Rain , Snow    
Averages and records for this station are not official NWS values.
T = Trace of Precipitation, MM = Missing Value Source: NWS Daily Summary

Daily Weather History Graph

Daily Weather History Graph

Search for Another Location

Airport or City:

Trip Planner

Search our weather history database for the weather conditions in past years. The results will help you decide how hot, cold, wet, or windy it might be!

Date:

Astronomy

Jan. 05, 2014 Rise Set
Actual Time 7:02 AM CST 4:48 PM CST
Civil Twilight 6:34 AM CST 5:16 PM CST
Nautical Twilight 6:02 AM CST 5:49 PM CST
Astronomical Twilight 5:30 AM CST 6:20 PM CST
Moon 9:52 AM CST 10:06 PM CST
Length of Visible Light 10h 42m
Length of Day
9h 45m
Waxing Crescent, 25% of the Moon is Illuminated
Jan 5
Waxing Crescent
Jan 7
First Quarter
Jan 15
Full
Jan 23
Last Quarter
Jan 30
New

Hourly Weather History & Observations

Time (CST) Temp. Windchill Dew Point Humidity Pressure Visibility Wind Dir Wind Speed Gust Speed Precip Events Conditions
12:58 AM 39.6 °F 34.0 °F 26.6 °F 60% 30.04 in 10.0 mi SSE 8.1 mph - N/A   Overcast
1:58 AM 39.7 °F 34.9 °F 28.0 °F 63% 30.01 in 10.0 mi SSE 6.9 mph - N/A   Overcast
2:58 AM 39.6 °F 33.5 °F 29.1 °F 66% 29.97 in 10.0 mi SSE 9.2 mph - N/A   Overcast
3:58 AM 38.5 °F 34.1 °F 30.4 °F 73% 29.94 in 10.0 mi SSE 5.8 mph - N/A   Clear
4:58 AM 38.8 °F 33.8 °F 32.5 °F 78% 29.93 in 10.0 mi SSE 6.9 mph - N/A   Clear
5:58 AM 39.7 °F 33.2 °F 35.1 °F 83% 29.91 in 10.0 mi SSE 10.4 mph - N/A   Overcast
6:58 AM 41.0 °F 35.8 °F 36.9 °F 85% 29.90 in 10.0 mi SSE 8.1 mph - N/A   Overcast
7:58 AM 41.9 °F 35.9 °F 38.5 °F 88% 29.87 in 10.0 mi South 10.4 mph - N/A   Overcast
8:58 AM 43.5 °F 36.1 °F 39.6 °F 86% 29.83 in 10.0 mi South 16.1 mph 21.9 mph N/A   Mostly Cloudy
9:58 AM 45.9 °F 39.4 °F 41.4 °F 84% 29.78 in 10.0 mi South 15.0 mph 21.9 mph N/A   Mostly Cloudy
10:58 AM 50.0 °F - 42.4 °F 75% 29.73 in 10.0 mi South 17.3 mph 24.2 mph N/A   Scattered Clouds
11:47 AM 51.8 °F - 44.6 °F 76% 29.66 in 10.0 mi South 16.1 mph 26.5 mph N/A   Light Drizzle
11:58 AM 52.0 °F - 45.0 °F 77% 29.66 in 10.0 mi South 20.7 mph 27.6 mph 0.00 in   Light Drizzle
12:17 PM 50.0 °F - 48.2 °F 94% 29.63 in 10.0 mi South 19.6 mph 31.1 mph N/A   Overcast
12:18 PM 50.0 °F - 48.2 °F 94% 29.63 in 10.0 mi South 15.0 mph 31.1 mph N/A Rain Light Rain
12:24 PM 50.0 °F - 50.0 °F 100% 29.62 in 10.0 mi South 20.7 mph 32.2 mph N/A   Overcast
12:25 PM 50.0 °F - 50.0 °F 100% 29.63 in 10.0 mi South 20.7 mph 32.2 mph N/A Rain Light Rain
12:28 PM 50.0 °F - 50.0 °F 100% 29.62 in 10.0 mi South 17.3 mph 32.2 mph N/A   Overcast
12:31 PM 50.0 °F - 50.0 °F 100% 29.62 in 10.0 mi South 13.8 mph 32.2 mph N/A   Light Drizzle
12:58 PM 50.7 °F - 50.4 °F 99% 29.61 in 10.0 mi South 15.0 mph 25.3 mph 0.05 in Rain Light Rain
12:59 PM 50.0 °F - 50.0 °F 100% 29.60 in 10.0 mi South 15.0 mph 25.3 mph N/A   Overcast
1:06 PM 51.8 °F - 50.0 °F 94% 29.60 in 10.0 mi South 15.0 mph - N/A Rain Light Rain
1:19 PM 50.0 °F - 50.0 °F 100% 29.61 in 6.0 mi SSW 16.1 mph 25.3 mph N/A Rain Light Rain
1:32 PM 50.0 °F - 50.0 °F 100% 29.60 in 8.0 mi SSW 15.0 mph 21.9 mph N/A Rain Light Rain
1:33 PM 50.0 °F - 50.0 °F 100% 29.60 in 8.0 mi SSW 15.0 mph 21.9 mph N/A Rain Light Rain
1:37 PM 50.0 °F - 50.0 °F 100% 29.61 in 9.0 mi SSW 15.0 mph - N/A   Overcast
1:40 PM 50.0 °F - 50.0 °F 100% 29.61 in 7.0 mi SSW 15.0 mph - N/A Rain Light Rain
1:52 PM 50.0 °F - 50.0 °F 100% 29.61 in 7.0 mi SSW 11.5 mph - N/A   Overcast
1:58 PM 49.8 °F - 49.8 °F 100% 29.62 in 8.0 mi SSW 12.7 mph - 0.08 in   Overcast
2:01 PM 50.0 °F - 50.0 °F 100% 29.61 in 8.0 mi SSW 12.7 mph - N/A Rain Light Rain
2:10 PM 50.0 °F - 50.0 °F 100% 29.60 in 9.0 mi South 11.5 mph - N/A Rain Light Rain
2:12 PM 50.0 °F - 50.0 °F 100% 29.60 in 9.0 mi South 12.7 mph 18.4 mph N/A   Overcast
2:14 PM 50.0 °F - 50.0 °F 100% 29.60 in 10.0 mi South 13.8 mph 18.4 mph N/A Rain Light Rain
2:24 PM 50.0 °F - 50.0 °F 100% 29.60 in 9.0 mi South 13.8 mph 24.2 mph N/A   Overcast
2:37 PM 50.0 °F - 50.0 °F 100% 29.60 in 4.0 mi SSW 17.3 mph 24.2 mph N/A Rain Light Rain
2:38 PM 50.0 °F - 50.0 °F 100% 29.60 in 4.0 mi SSW 17.3 mph 24.2 mph N/A Rain Light Rain
2:55 PM 50.0 °F - 50.0 °F 100% 29.60 in 8.0 mi SSW 12.7 mph 20.7 mph N/A   Overcast
2:56 PM 50.0 °F - 50.0 °F 100% 29.60 in 8.0 mi SSW 13.8 mph 20.7 mph N/A Rain Light Rain
2:58 PM 50.0 °F - 50.0 °F 100% 29.61 in 8.0 mi SSW 15.0 mph 20.7 mph 0.09 in Rain Light Rain
3:02 PM 50.0 °F - 50.0 °F 100% 29.59 in 9.0 mi South 15.0 mph - N/A   Overcast
3:04 PM 50.0 °F - 50.0 °F 100% 29.60 in 9.0 mi SSW 15.0 mph - N/A   Overcast
3:14 PM 50.0 °F - 50.0 °F 100% 29.60 in 10.0 mi SSW 16.1 mph 21.9 mph N/A   Overcast
3:15 PM 50.0 °F - 50.0 °F 100% 29.60 in 10.0 mi SSW 18.4 mph - N/A Rain Light Rain
3:19 PM 50.0 °F - 50.0 °F 100% 29.60 in 10.0 mi SSW 18.4 mph - N/A   Light Drizzle
3:37 PM 50.0 °F - 50.0 °F 100% 29.61 in 6.0 mi SW 18.4 mph 27.6 mph N/A   Light Drizzle
3:41 PM 50.0 °F - 50.0 °F 100% 29.60 in 7.0 mi SW 20.7 mph 27.6 mph N/A   Light Drizzle
3:52 PM 50.0 °F - 50.0 °F 100% 29.62 in 6.0 mi West 25.3 mph 34.5 mph N/A   Light Drizzle
3:56 PM 50.0 °F - 50.0 °F 100% 29.65 in 4.0 mi WNW 26.5 mph 36.8 mph N/A   Light Drizzle
3:57 PM 50.0 °F - 50.0 °F 100% 29.65 in 3.0 mi WNW 25.3 mph 36.8 mph N/A   Light Drizzle
3:58 PM 50.4 °F - 50.2 °F 99% 29.66 in 3.0 mi WNW 25.3 mph 36.8 mph 0.04 in Rain Light Rain
4:00 PM 41.0 °F 30.0 °F 39.2 °F 93% 29.65 in 2.5 mi WNW 28.8 mph 36.8 mph N/A Rain Light Rain
4:01 PM 41.0 °F 29.7 °F 39.2 °F 93% 29.65 in 2.5 mi WNW 31.1 mph 36.8 mph N/A Rain Light Rain
4:04 PM 39.2 °F 27.8 °F 39.2 °F 100% 29.66 in 3.0 mi WNW 27.6 mph 36.8 mph N/A Rain Light Rain
4:07 PM 37.4 °F 25.6 °F 37.4 °F 100% 29.67 in 4.0 mi WNW 26.5 mph 36.8 mph N/A Rain Light Rain
4:09 PM 37.4 °F 25.9 °F 35.6 °F 93% 29.67 in 6.0 mi WNW 25.3 mph 36.8 mph N/A   Overcast
4:16 PM 35.6 °F 24.8 °F 35.6 °F 100% 29.69 in 6.0 mi WNW 19.6 mph 34.5 mph N/A   Overcast
4:22 PM 33.8 °F 21.3 °F 33.8 °F 100% 29.70 in 3.0 mi WNW 24.2 mph 31.1 mph N/A   Overcast
4:31 PM 32.0 °F 19.8 °F 32.0 °F 100% 29.71 in 4.0 mi WNW 20.7 mph 31.1 mph N/A   Overcast
4:32 PM 32.0 °F 19.8 °F 32.0 °F 100% 29.71 in 4.0 mi WNW 20.7 mph 31.1 mph N/A   Overcast
4:38 PM 32.0 °F 19.5 °F 32.0 °F 100% 29.72 in 5.0 mi WNW 21.9 mph 29.9 mph N/A   Overcast
4:40 PM 32.0 °F 19.2 °F 32.0 °F 100% 29.71 in 5.0 mi WNW 23.0 mph 29.9 mph N/A   Overcast
4:45 PM 32.0 °F 20.5 °F 32.0 °F 100% 29.72 in 5.0 mi WNW 18.4 mph 29.9 mph N/A   Light Drizzle
4:56 PM 32.0 °F 19.8 °F 32.0 °F 100% 29.74 in 8.0 mi WNW 20.7 mph 29.9 mph N/A   Light Drizzle
4:58 PM 31.8 °F 19.6 °F 31.8 °F 100% 29.76 in 8.0 mi WNW 20.7 mph 29.9 mph 0.01 in   Light Freezing Rain
5:15 PM 32.0 °F 20.5 °F 32.0 °F 100% 29.75 in 9.0 mi WNW 18.4 mph 23.0 mph N/A   Light Drizzle
5:24 PM 30.2 °F 19.3 °F 30.2 °F 100% 29.76 in 9.0 mi NW 15.0 mph 26.5 mph N/A Snow Light Snow
5:26 PM 30.2 °F 19.3 °F 30.2 °F 100% 29.76 in 9.0 mi WNW 15.0 mph 26.5 mph N/A Snow Light Snow
5:28 PM 30.2 °F 18.9 °F 30.2 °F 100% 29.77 in 8.0 mi WNW 16.1 mph 24.2 mph N/A Snow Light Snow
5:31 PM 30.2 °F 19.3 °F 30.2 °F 100% 29.77 in 7.0 mi WNW 15.0 mph - N/A Snow Light Snow
5:32 PM 30.2 °F 18.9 °F 30.2 °F 100% 29.78 in 7.0 mi WNW 16.1 mph - N/A Snow Light Snow
5:36 PM 30.2 °F 18.5 °F 30.2 °F 100% 29.78 in 5.0 mi West 17.3 mph 23.0 mph N/A Snow Light Snow
5:39 PM 28.4 °F 15.1 °F 28.4 °F 100% 29.78 in 5.0 mi West 20.7 mph 24.2 mph N/A Snow Light Snow
5:42 PM 28.4 °F 15.4 °F 28.4 °F 100% 29.79 in 5.0 mi West 19.6 mph 26.5 mph N/A Snow Light Snow
5:44 PM 28.4 °F 15.8 °F 28.4 °F 100% 29.79 in 6.0 mi West 18.4 mph 26.5 mph N/A Snow Snow
5:46 PM 28.4 °F 15.4 °F 28.4 °F 100% 29.80 in 8.0 mi WNW 19.6 mph 26.5 mph N/A   Overcast
5:49 PM 28.4 °F 15.4 °F 28.4 °F 100% 29.80 in 10.0 mi WNW 19.6 mph 26.5 mph N/A   Overcast
5:58 PM 27.7 °F 13.5 °F 27.5 °F 99% 29.84 in 10.0 mi WNW 23.0 mph 26.5 mph 0.01 in   Overcast
6:55 PM 23.0 °F 8.3 °F 21.2 °F 93% 29.90 in 10.0 mi NW 19.6 mph 28.8 mph N/A   Overcast
6:58 PM 23.7 °F 8.5 °F 20.8 °F 89% 29.92 in 10.0 mi NW 21.9 mph 29.9 mph N/A   Overcast
7:16 PM 24.8 °F 10.0 °F 21.2 °F 86% 29.92 in 10.0 mi WNW 21.9 mph 31.1 mph N/A   Overcast
7:26 PM 23.0 °F 9.6 °F 19.4 °F 86% 29.94 in 10.0 mi NW 16.1 mph 28.8 mph N/A Snow Light Snow
7:30 PM 23.0 °F 8.7 °F 19.4 °F 86% 29.94 in 10.0 mi NW 18.4 mph 28.8 mph N/A Snow Light Snow
7:58 PM 21.9 °F 7.3 °F 18.0 °F 85% 29.99 in 10.0 mi NW 18.4 mph 26.5 mph 0.00 in Snow Light Snow
8:26 PM 21.2 °F 7.8 °F 17.6 °F 86% 30.00 in 10.0 mi NW 15.0 mph 27.6 mph N/A Snow Light Snow
8:33 PM 21.2 °F 6.4 °F 17.6 °F 86% 30.00 in 7.0 mi NW 18.4 mph 25.3 mph N/A Snow Light Snow
8:58 PM 20.3 °F 4.0 °F 16.9 °F 87% 30.04 in 8.0 mi NW 21.9 mph 35.7 mph 0.00 in Snow Light Snow
9:28 PM 19.4 °F 3.6 °F 14.0 °F 80% 30.04 in 10.0 mi NW 19.6 mph 31.1 mph N/A Snow Light Snow
9:30 PM 19.4 °F 5.0 °F 14.0 °F 80% 30.05 in 10.0 mi NW 16.1 mph 31.1 mph N/A Snow Light Snow
9:58 PM 18.3 °F 4.1 °F 13.5 °F 81% 30.09 in 10.0 mi WNW 15.0 mph 33.4 mph 0.00 in Snow Light Snow
10:01 PM 17.6 °F -0.3 °F 14.0 °F 86% 30.07 in 10.0 mi WNW 24.2 mph 29.9 mph N/A Snow Light Snow
10:05 PM 17.6 °F -0.6 °F 14.0 °F 86% 30.08 in 10.0 mi WNW 25.3 mph 35.7 mph N/A Snow Light Snow
10:12 PM 17.6 °F 0.5 °F 12.2 °F 79% 30.08 in 10.0 mi NW 21.9 mph 38.0 mph N/A Snow Light Snow
10:15 PM 17.6 °F -1.0 °F 12.2 °F 79% 30.08 in 10.0 mi NW 26.5 mph - N/A Snow Light Snow
10:22 PM 17.6 °F 1.7 °F 12.2 °F 79% 30.09 in 10.0 mi NW 18.4 mph 32.2 mph N/A Snow Light Snow
10:28 PM 17.6 °F 3.7 °F 12.2 °F 79% 30.09 in 10.0 mi NW 13.8 mph 27.6 mph N/A Snow Light Snow
10:39 PM 17.6 °F 0.5 °F 12.2 °F 79% 30.11 in 10.0 mi NW 21.9 mph 31.1 mph N/A Snow Light Snow
10:46 PM 17.6 °F 2.2 °F 12.2 °F 79% 30.11 in 10.0 mi WNW 17.3 mph 31.1 mph N/A   Overcast
10:53 PM 17.6 °F 0.9 °F 12.2 °F 79% 30.11 in 10.0 mi WNW 20.7 mph 27.6 mph N/A Snow Light Snow
10:58 PM 16.9 °F 1.2 °F 12.0 °F 81% 30.13 in 10.0 mi NW 17.3 mph 27.6 mph 0.00 in Snow Light Snow
11:01 PM 15.8 °F -1.5 °F 12.2 °F 86% 30.11 in 10.0 mi NW 20.7 mph 31.1 mph N/A Snow Light Snow
11:08 PM 15.8 °F -1.5 °F 10.4 °F 79% 30.12 in 10.0 mi NW 20.7 mph 31.1 mph N/A   Overcast
11:09 PM 15.8 °F -2.3 °F 10.4 °F 79% 30.12 in 10.0 mi NW 23.0 mph 31.1 mph N/A Snow Light Snow
11:32 PM 15.8 °F -1.5 °F 10.4 °F 79% 30.14 in - NW 20.7 mph 36.8 mph N/A Snow Light Snow
11:44 PM 15.8 °F -1.1 °F 8.6 °F 73% 30.15 in 10.0 mi NW 19.6 mph 29.9 mph N/A Snow Light Snow
11:47 PM 15.8 °F -0.6 °F 8.6 °F 73% 30.15 in 10.0 mi NW 18.4 mph 27.6 mph N/A Snow Light Snow
11:48 PM 15.8 °F 0.3 °F 8.6 °F 73% 30.15 in 10.0 mi NW 16.1 mph 27.6 mph N/A Snow Light Snow
11:53 PM 14.0 °F -3.0 °F 8.6 °F 79% 30.15 in 10.0 mi NW 18.4 mph 26.5 mph N/A Snow Light Snow
11:58 PM 14.7 °F 1.4 °F 9.1 °F 79% 30.18 in 10.0 mi NW 11.5 mph 23.0 mph 0.00 in Snow Light Snow